Location: Gerlach
(40.6516°N, 119.3568°W)
Time: 04:55:42
(UTC-07:00)

Explorer 11/Cluster Stage 4 - Pass Details

Date: 06 February 2023
Orbit: 466 x 1241 km, 28.8° (Epoch: 02 April)

Event Time Altitude Azimuth Distance (km) Brightness Sun altitude
Exits shadow 06:23:27 - 253° (WSW) 3,676 9.5 -7.9°
Reaches altitude 10° 06:25:25 10° 247° (WSW) 3,113 9.2 -7.5°
Maximum altitude 06:32:18 33° 187° (S) 1,949 8.7 -6.2°
Drops below altitude 10° 06:39:18 10° 128° (SE) 3,168 11.1 -5.0°
Sets 06:42:26 0° 119° (ESE) 4,083 12.4 -4.4°
